Regional Weather Roundup
Issued by NWS

Home | Current Version | Previous Version | Graphics & Text | Print | Product List | Glossary Off
Versions: 1 2 3 4 5 6 7 8 9 10 11 12 13 14 15 16 17 18 19 20 21 22 23 24 25 26 27 28 29 30 31 32 33 34 35 36 37 38 39 40 41 42 43 44 45 46 47 48 49 50

185
ASUS43 KMKX 240511
RWRWI

WISCONSIN REGIONAL WEATHER ROUNDUP
NATIONAL WEATHER SERVICE MILWAUKEE/SULLIVAN WI
1200 AM CDT SAT JUN 24 2017

NOTE: "FAIR" INDICATES FEW OR NO CLOUDS BELOW 12,000 FEET WITH NO
SIGNIFICANT WEATHER AND/OR OBSTRUCTIONS TO VISIBILITY.

WIZ001-002-006>008-014>016-023>028-240600-
NORTHWEST WISCONSIN

CITY           SKY/WX    TMP DP  RH WIND       PRES   REMARKS
SUPERIOR ARPT  NOT AVBL
ASHLAND        CLOUDY    60  52  74 W13       29.83R
HAYWARD        LGT RAIN  57  52  83 VRB3      29.87R
SIREN          MOCLDY    56  49  76 CALM      29.91R
CUMBERLAND     CLOUDY    57  48  72 NW9G17    29.90R
RICE LAKE      CLOUDY    60  50  70 W9G20     29.90R
CHETEK         CLOUDY    60  53  77 NW9       29.89R
LADYSMITH      CLOUDY    60  53  77 NW13G18   29.88R
EAU CLAIRE     CLOUDY    61  52  72 W14G24    29.88R
MENOMONIE      CLOUDY    59  55  86 W10       29.91R
NEW RICHMOND   MOCLDY    57  49  75 W7        29.93R
OSCEOLA        CLOUDY    59  50  71 W8        29.95S
$$

WIZ003>005-009-010-017-018-240600-
NORTH CENTRAL WISCONSIN

CITY           SKY/WX    TMP DP  RH WIND       PRES   REMARKS
MANITOWISH WTR MOCLDY    56  53  89 NW9       29.81R
ARBOR VITAE    PTCLDY    59  52  79 NW6       29.81R
WOODRUFF       PTCLDY    59  52  79 NW6       29.81R
RHINELANDER    PTCLDY    55  53  93 W8        29.81R
EAGLE RIVER    PTCLDY    55  47  76 CALM      29.79S
LAND O LAKES   PTCLDY    57  48  72 NW6       29.81R
PHILLIPS       MOCLDY    56  54  92 CALM      29.83R
TOMAHAWK       NOT AVBL
MEDFORD        MOCLDY    56  51  82 W7        29.85R
MERRILL        MOCLDY    58  53  85 NW8       29.83R
$$

WIZ029-030-035-036-043>047-240600-
CENTRAL WISCONSIN

CITY           SKY/WX    TMP DP  RH WIND       PRES   REMARKS
WAUSAU         CLOUDY    59  53  80 W12       29.81R
MOSINEE        PTCLDY    57  52  82 W7        29.84R
MARSHFIELD     PTCLDY    58  52  80 NW9       29.84R
STEVENS POINT  CLEAR     58  51  76 W5        29.83S
WAUPACA        CLEAR     62  53  72 W7        29.81S
WAUTOMA        CLEAR     60  54  80 W10       29.84R
WISC RAPIDS    CLOUDY    61  52  72 NW8       29.85R
CAMP DOUGLAS   CLEAR     58  53  81 W9        29.86R
$$

WIZ011>013-019>022-031-037>040-048>050-240600-
NORTHEAST WISCONSIN

CITY           SKY/WX    TMP DP  RH WIND       PRES   REMARKS
ANTIGO         PTCLDY    55  51  86 W9        29.81S
SHAWANO        CLEAR     62  52  70 W7        29.78S
OCONTO         CLEAR     55  51  85 W3        29.77R
STURGEON BAY     N/A     63  52  67 W6          N/A
GREEN BAY      CLEAR     61  55  81 W7        29.78R
MANITOWOC      CLEAR     63  54  72 W7        29.78S
APPLETON       CLEAR     59  52  77 W6        29.79S
CLINTONVILLE   CLEAR     59  50  72 W7        29.80R
OSHKOSH        MOCLDY    62  54  74 W6        29.80S
$$

WIZ032>034-041-042-053>061-240600-
SOUTHWEST WISCONSIN

CITY           SKY/WX    TMP DP  RH WIND       PRES   REMARKS
LA CROSSE      CLOUDY    68  54  60 W14       29.89R
SPARTA         CLEAR     58  53  83 W3        29.89R
VIROQUA        MOCLDY    61  54  78 W9        29.91R
BOSCOBEL       CLEAR     65  55  70 VRB6      29.90R
PRAIRIE DU CHI PTCLDY    64  53  68 W10G16    29.92R
PLATTEVILLE    CLEAR     61  57  88 W9        29.92R
$$

WIZ056-057-062-063-064-067-068-240600-
SOUTH CENTRAL WISCONSIN

CITY           SKY/WX    TMP DP  RH WIND       PRES   REMARKS
REEDSBURG      CLEAR     60  54  78 W6        29.87R
BARABOO/DELLS  CLEAR     59  52  78 W6        29.87R
LONE ROCK      PTCLDY    62  56  80 W6        29.88R
MINERAL POINT  CLEAR     61  57  88 W9        29.90R
MADISON        CLEAR     63  54  72 CALM      29.85R
MIDDLETON      CLEAR     60  55  83 W8        29.87R
WATERTOWN      CLEAR     60  56  87 W5        29.84R
MONROE         CLEAR     61  54  77 W13       29.89R
JANESVILLE     CLEAR     61  54  77 W6        29.86R
$$

WIZ051-052-058>065-066-070>072-240600-
SOUTHEAST WISCONSIN

CITY           SKY/WX    TMP DP  RH WIND       PRES   REMARKS
MILWAUKEE      CLEAR     68  53  58 W8        29.81S
WAUKESHA       CLEAR     59  52  77 W7        29.84S
MILWAUKEE/TIMM CLEAR     61  50  67 W7        29.83S
RACINE         CLEAR     65  52  62 W6        29.84R
KENOSHA        CLEAR     60  54  80 W7        29.83S
FOND DU LAC    PTCLDY    62  53  72 W6        29.81S
SHEBOYGAN      CLEAR     62  56  80 W7        29.79S
WEST BEND      CLEAR     61  54  77 W6        29.82S
JUNEAU         CLEAR     60  54  82 W6        29.84S
$$

LSZ147-162-240600-
LAKE SUPERIOR

STATION/POSITION TIME  TEMP    WIND        PRES    WAVE
                       AIR SEA DIR/SP/G            HT/PER
                 (UTC) (F)     (DEG/KT/KT) (MB)    (FT/S)
W MID LAKE BUOY  0350   47 39  260/  8/  8 1007.5S   1
DEVILS ISLAND    0500   54     240/ 10/ 13 1009.4R
SAXON HARBOR     0440   62     280/  8/ 14 1009.1R
$$

LMZ867-665-643>646-240600-
LAKE MICHIGAN

STATION/POSITION TIME  TEMP    WIND        PRES    WAVE
                       AIR SEA DIR/SP/G            HT/PER
                 (UTC) (F)     (DEG/KT/KT) (MB)    (FT/S)
CHAMBERS ISLAND  0440   63     250/  3/  6 1007.1R
S GREEN BAY BUOY 0500   65     260/ 12/ 14 1007.8
N MID LAKE BUOY  0450   61 57  250/  2/  4 1007.2R   1
NORTHPORT PIER   0430   65     290/  7/  9 1006.8R
KEWAUNEE LAKESHO 0448   62     290/  4/  6 1007.7R
SHEBOYGAN LAKESH 0500   65     270/ 10/ 12 1008.2R
PORT WASHINGTON  0440   66     290/  5/  8 1010.2R
ATWATER BUOY     0309   66 60  280/ 10/ 10 1009.1
MILWAUKEE LAKESH 0450   67     290/  8/ 11   N/A
S MID LAKE BUOY  0350   66 63  330/ 16/ 17 1008.4R   1/ 3
KENOSHA   LAKESH 0500   66     280/  8/ 11 1010.2
$$

TC  - TEMPERATURE IN CELSIUS
VSB - VISIBILITY IN STATUTE MILES
WCI - WIND CHILL INDEX
HX  - HEAT INDEX





USA.gov is the U.S. government's official web portal to all federal, state and local government web resources and services.